Tracking 29892 objects as of 21-Nov-2024
HD Live streaming from Space Station
objects crossing your sky now

MOST

Track MOST now!
10-day predictions
MOST is classified as:


NORAD ID: 27843
Int'l Code: 2003-031D
Perigee: 820.9 km
Apogee: 836.7 km
Inclination: 98.7 °
Period: 101.3 minutes
Semi major axis: 7199 km
RCS: 0.317 m2 (medium)
Launch date: June 30, 2003
Source: Canada (CA)
Launch site: PLESETSK MISSILE AND SPACE COMPLEX (PKMTR)

Canada's space telescope, dubbed the "Humble Telescope"; minisatellite; monitor brightness variations in stars.
Your satellite tracking list
Your tracking list is empty




NASA's NSSDC Master Catalog

Two Line Element Set (TLE):
1 27843U 03031D   24324.52501892  .00000211  00000-0  11711-3 0  9996
2 27843  98.7078 329.2938 0010973 109.4737 250.7626 14.21093228109080
Source of the keplerian elements: AFSPC